This demonstration page uses our WeatherBlox Daily Observations layout. Learn more.

Left ArrowRight Arrow

Hourly Observations for April 10, 2016

Temp ( °F °C ) Dew Point ( °F °C ) Humidity (%) Winds ( mph kmh ) Pressure ( in mb ) Visibility ( mi km ) Precip ( " mm )
12:54 am 00:54 Clear 56 13.3 41 5 57 57 S 17 28 29.63 1003 10 16 0.00 0.00
1:54 am 01:54 Clear 60 15.6 45 7.2 58 58 SSW 20 31 29.62 1003 10 16 0.00 0.00
2:54 am 02:54 Clear 58 14.4 44 6.7 60 60 SSW 24 39 29.61 1003 10 16 0.00 0.00
3:54 am 03:54 Clear 57 13.9 45 7.2 64 64 SSW 17 28 29.59 1002 10 16 0.00 0.00
4:54 am 04:54 Clear 56 13.3 46 7.8 70 70 SSW 17 28 29.58 1002 10 16 0.00 0.00
5:54 am 05:54 Clear 55 12.8 46 7.8 72 72 S 14 22 29.58 1002 10 16 0.00 0.00
6:54 am 06:54 Clear 54 12.2 46 7.8 75 75 SSW 13 20 29.59 1002 10 16 0.00 0.00
7:54 am 07:54 Sunny 55 12.8 48 8.9 77 77 SSW 6 9 29.62 1003 10 16 0.00 0.00
8:54 am 08:54 Mostly Sunny 58 14.4 49 9.4 72 72 SW 8 13 29.63 1003 10 16 0.00 0.00
9:54 am 09:54 Mostly Cloudy 61 16.1 50 10 67 67 W 12 19 29.63 1004 10 16 0.00 0.00
10:05 am 10:05 Mostly Cloudy 61 16 50 10 68 68 W 12 19 29.62 1003 10 16 0.00 0.00
10:54 am 10:54 Mostly Cloudy 61 16.1 50 10 67 67 NW 8 13 29.66 1004 10 16 0.00 0.00
11:22 am 11:22 Mostly Cloudy 64 18 48 9 56 56 N 18 30 29.65 1004 10 16 0.00 0.00
11:54 am 11:54 Partly Cloudy 64 17.8 43 6.1 46 46 N 22 35 29.69 1005 10 16 0.00 0.00
12:54 pm 12:54 Sunny 66 18.9 38 3.3 36 36 N 25 41 29.69 1006 10 16 0.00 0.00
1:54 pm 13:54 Sunny 67 19.4 38 3.3 35 35 NNE 23 37 29.72 1006 10 16 0.00 0.00
2:54 pm 14:54 Sunny 65 18.3 32 0 29 29 N 26 43 29.75 1008 10 16 0.00 0.00
3:54 pm 15:54 Sunny 68 20 28 -2.2 22 22 NE 20 31 29.75 1007 10 16 0.00 0.00
4:54 pm 16:54 Sunny 66 18.9 30 -1.1 26 26 N 20 31 29.77 1008 10 16 0.00 0.00
5:54 pm 17:54 Sunny 64 17.8 33 0.6 32 32 N 18 30 29.80 1009 10 16 0.00 0.00
6:54 pm 18:54 Sunny 61 16.1 34 1.1 36 36 N 13 20 29.83 1010 10 16 0.00 0.00
7:54 pm 19:54 Mostly Cloudy 58 14.4 32 0 38 38 N 13 20 29.86 1011 10 16 0.00 0.00
8:54 pm 20:54 Cloudy 55 12.8 34 1.1 45 45 N 7 11 29.88 1012 10 16 0.00 0.00
9:54 pm 21:54 Partly Cloudy 56 13.3 32 0 40 40 NW 3 6 29.89 1012 10 16 0.00 0.00
10:54 pm 22:54 Clear 45 7.2 32 0 61 61 NNW 6 9 29.89 1012 10 16 0.00 0.00
11:54 pm 23:54 Mostly Clear 42 5.6 32 0 68 68 NNE 5 7 29.95 1014 10 16 0.00 0.00

Powered by AerisWeather